Location: Go?uchowice
(50.5760°N, 19.6143°E)
Time: 05:12:08
(UTC+00:00)

Daily predictions for brighter satellites

Satellite Brightness Start Highest point End
(mag) Time Altitude Azimuth Time Altitude Azimuth Time Altitude Azimuth
Cosmos 1470 4.4 00:00:04 10° NNE 00:02:46 22° ENE 00:03:02 22° ENE
Cosmos 1992 Rocket 3.8 00:05:01 73° SSW 00:05:33 89° ESE 00:10:49 10° NNE
Cosmos 1726 Rocket 3.7 00:07:11 64° NW 00:07:11 64° NW 00:11:03 10° N
PSLV R/B 4.2 00:05:13 10° N 00:08:26 59° N 00:08:26 59° N
Meteor 1-26 Rocket 4.1 00:09:29 59° SSE 00:10:26 75° E 00:15:52 10° NNE
Cosmos 1536 3.2 00:09:13 10° N 00:12:17 55° NNE 00:12:17 55° NNE
ATLAS 2AS CENTAUR R/B 3.5 00:09:45 21° W 00:14:02 46° NNW 00:20:34 10° NE
IDEFIX/ARIANE 42P 3.0 00:10:21 10° NNE 00:15:27 54° E 00:16:41 44° SE
Cosmos 1953 Rocket 4.0 00:18:28 10° NNW 00:22:18 47° WNW 00:22:18 47° WNW
Nimbus 7 Rocket 4.5 00:18:06 10° NNE 00:24:12 78° ESE 00:26:11 45° S
USA 234 3.6 00:18:31 10° E 00:24:59 65° NNE 00:31:28 10° WNW
Cosmos 1980 Rocket 3.5 00:20:46 10° NW 00:24:20 24° W 00:24:20 24° W
Cosmos 1766 4.3 00:22:25 10° NNW 00:24:17 32° NNW 00:24:17 32° NNW
Cosmos 1707 3.7 00:31:24 31° N 00:31:24 31° N 00:33:05 10° N
Cosmos 44 Rocket 3.3 00:29:47 62° SSW 00:30:39 85° SE 00:35:52 10° NE
ADEOS II 4.5 00:27:45 10° NE 00:30:57 16° E 00:34:08 10° SE
COSMOS 2406 3.2 00:32:29 49° S 00:34:05 75° ESE 00:39:51 10° NNE
H-2A R/B 4.5 00:31:48 10° ESE 00:34:38 22° ENE 00:37:28 10° NNE
MSX 3.8 00:28:58 10° NNE 00:34:45 77° ESE 00:36:45 43° S
Cosmos 1975 3.5 00:32:06 10° N 00:35:38 45° ENE 00:36:20 39° ESE
Cosmos 2369 4.3 00:31:39 10° NW 00:36:37 37° WSW 00:36:37 37° WSW
ADEOS Rocket 3.9 00:29:37 10° NNE 00:37:07 60° E 00:41:53 25° S
Cosmos 1634 Rocket 4.0 00:35:56 45° SW 00:37:48 67° WNW 00:43:57 10° N
SL-08 ROCKET BODY 4.3 00:31:54 10° NNW 00:37:53 74° W 00:40:00 42° S
ALOS 4.3 00:35:04 10° NE 00:38:27 20° E 00:41:29 11° SE
CZ-2D R/B 3.9 00:35:05 10° NE 00:39:23 25° E 00:43:17 12° SE
Cosmos 724 4.4 00:44:49 41° SW 00:47:00 75° NW 00:52:59 10° NE
Cosmos 1607 3.9 00:47:22 41° SW 00:49:41 86° NW 00:56:00 10° NE
Cosmos 1354 Rocket 4.3 00:46:50 10° NNW 00:52:07 67° ENE 00:57:20 10° SE
Cosmos-2242 3.5 00:52:12 41° W 00:52:25 42° WNW 00:56:25 10° N
Cosmos 2360 Rocket 2.3 00:47:14 10° NNW 00:52:57 77° ENE 00:58:38 10° SE
Cosmos 1503 Rocket 3.9 00:48:15 10° NNW 00:53:35 88° WSW 00:56:50 24° SSE
Cosmos 2333 Rocket 2.1 00:48:19 10° NNW 00:53:57 69° WSW 00:57:05 27° S
FENGYUN 3A 3.6 00:49:04 10° NNE 00:54:32 83° ESE 00:56:44 38° S
USA 281 3.2 00:51:27 31° S 00:54:40 58° WSW 01:01:10 10° NNW
Cosmos 220 Rocket 3.7 00:56:20 62° S 00:56:56 80° ESE 01:00:58 10° NNE
Cosmos 2082 Rocket 3.0 00:59:24 29° W 01:01:47 42° NW 01:07:14 10° NNE
Cosmos 1842 2.9 01:02:44 61° NW 01:02:44 61° NW 01:05:37 10° N
Cosmos 540 Rocket 4.0 01:01:37 28° SSE 01:04:01 51° ESE 01:09:01 10° NNE
Cosmos 2279 Rocket 4.1 01:03:59 35° SW 01:06:31 59° WNW 01:12:43 10° N
Meteor 2-9 Rocket 4.0 01:02:16 10° NNW 01:07:36 74° W 01:10:19 29° S
NPP 3.6 01:02:15 10° NNE 01:07:40 77° WNW 01:09:56 36° SSW
Cosmos 2278 3.7 01:02:05 10° NW 01:07:41 60° WSW 01:11:11 23° S
Cosmos 1486 Rocket 4.2 01:03:16 10° NNW 01:08:14 47° WSW 01:09:36 38° SSW
Cosmos 2322 Rocket 2.1 01:02:35 10° NNW 01:08:15 80° WSW 01:13:53 10° SSE
DNEPR-1 R/B 4.5 01:03:05 10° NW 01:08:16 70° NE 01:14:35 10° SE
Resurs 1-4 Rocket 2.9 01:03:25 10° NNE 01:08:32 45° E 01:12:17 17° SSE
Cosmos 2221 2.3 01:07:40 49° SSW 01:08:45 88° W 01:12:55 10° N
USA 305 4.0 01:16:13 18° NE 01:16:13 18° NE 01:16:51 10° NE
ACS3 Solar Sail 2.7 01:10:37 10° N 01:15:57 34° WNW 01:18:33 24° WSW
NOSS 3-3 (A) 3.7 01:14:12 35° SW 01:16:38 84° NW 01:23:03 10° NE
Cosmos 1777 Rocket 4.3 01:13:52 10° NW 01:18:53 45° WSW 01:20:41 33° SSW
Cosmos 1766 Rocket 4.4 01:15:14 10° N 01:19:28 48° ENE 01:23:38 10° SSE
Cosmos 2219 Rocket 2.3 01:16:36 10° NNW 01:22:16 80° ENE 01:27:55 10° SSE
SL-16 R/B 2.7 01:17:52 10° NW 01:23:04 38° WSW 01:24:53 30° SW
H-2A R/B 3.1 01:18:18 10° NNE 01:23:11 42° E 01:27:58 11° SSE
Meteor 1-11 Rocket 3.7 01:18:06 10° NNW 01:24:01 82° W 01:29:12 13° S
CZ-4C R/B 2.9 01:22:06 21° W 01:24:49 40° NNW 01:30:23 10° NE
Meteor 1-19 Rocket 4.1 01:22:10 28° SSW 01:25:10 83° WNW 01:30:49 10° NNE
Cosmos 1271 Rocket 2.5 01:27:38 49° SW 01:28:18 61° WNW 01:31:46 10° N
NOAA 11 4.1 01:23:25 10° NNE 01:28:52 81° WNW 01:32:03 26° SSW
USA 267 3.4 01:23:25 10° ENE 01:29:56 63° SE 01:34:01 24° SW
SL-4 R/B 2.2 01:31:34 40° SW 01:31:46 41° SSW 01:35:22 10° SE
Meteor 1-10 Rocket 4.2 01:29:04 23° SSW 01:32:44 87° WNW 01:38:35 10° NNE
NOSS 3-3 (C) 3.8 01:30:27 29° SW 01:33:24 79° NW 01:39:54 10° NE
Cosmos 2266 Rocket 4.1 01:29:24 10° NNW 01:35:19 52° W 01:39:09 21° SSW
Cosmos 1470 3.7 01:33:53 10° NNW 01:36:16 25° WNW 01:36:16 25° WNW
Gbstr 26 Del rocket 2.9 01:37:23 33° WSW 01:38:28 43° SSW 01:42:01 10° SE
USA 290 2.3 01:37:48 37° S 01:38:52 67° ESE 01:42:01 10° NNE
Cosmos 2333 4.3 01:43:11 10° NW 01:48:41 53° WSW 01:54:12 10° S
Cosmos 372 Rocket 4.0 01:43:31 10° NNW 01:48:44 86° ENE 01:53:52 10° SSE
DMSP B5D2-2 4.2 01:45:23 17° S 01:49:16 50° W 01:54:20 10° NNW
Cosmos 1655 Rocket 3.9 01:44:18 10° NNW 01:50:33 76° W 01:56:44 10° S
Cosmos 1812 Rocket 4.0 01:49:34 26° SW 01:51:33 44° WNW 01:55:43 10° N
NOSS 3-4 (A) 3.8 01:47:20 10° NW 01:53:59 72° SW 02:01:50 10° SSE
Meteor 2-20 Rocket 4.4 01:49:02 15° SSW 01:54:13 80° W 02:00:11 10° N
NOSS 3-4 (C) 3.8 01:47:52 10° NW 01:54:32 73° SW 02:02:24 10° SSE
IDEFIX/ARIANE 42P 3.8 01:50:19 10° N 01:54:37 27° WNW 01:57:22 17° WSW
Meteor 2-4 Rocket 3.8 01:52:16 10° S 01:57:34 75° E 02:02:55 10° NNE
Envisat 3.0 01:52:34 10° N 01:57:37 67° WNW 02:01:23 18° SSW
ISS -1.7 01:56:14 15° S 01:57:46 19° SE 02:00:15 10° E
Aureole 1 Rocket 3.2 01:55:54 10° NNW 01:59:58 58° WSW 02:05:02 10° S
JB-3 4.0 01:56:29 10° SSE 02:00:05 82° WSW 02:03:42 10° NNW
Cosmos 2084 Rocket 3.9 02:00:14 10° WNW 02:04:05 35° SW 02:07:57 10° S
Iridium 4 Rocket 3.8 02:03:00 19° SW 02:06:01 43° W 02:10:53 10° N
Cosmos 1461 3.7 02:03:16 14° S 02:06:08 38° ESE 02:09:37 10° NE
ATLAS 2AS CENTAUR R/B 4.4 02:00:50 10° WNW 02:06:34 27° N 02:12:16 10° NE
USA 234 3.2 02:01:36 10° SE 02:08:04 62° SW 02:14:34 10° WNW
H-2A R/B 2.8 02:06:25 19° SSW 02:08:26 34° W 02:11:45 10° NNW
Meteor 1-27 Rocket 3.9 02:03:30 13° SSW 02:08:47 71° WNW 02:14:42 10° N
Cosmos 1975 4.4 02:08:02 10° NW 02:10:15 16° W 02:10:36 15° W
ADEOS II 2.1 02:05:55 10° NNE 02:11:11 85° WNW 02:16:25 10° SSW
Cosmos 1842 Rocket 3.6 02:09:31 10° S 02:13:48 77° E 02:18:08 10° NNE
Cosmos 2297 Rocket 4.4 02:11:15 10° SSE 02:15:28 22° ESE 02:19:42 10° NE
ALOS 2.4 02:11:15 10° N 02:15:43 56° WNW 02:19:31 14° SW
Cosmos 1238 Rocket 2.5 02:15:06 21° SW 02:16:38 42° WNW 02:19:33 10° N
Cosmos 1763 Rocket 4.1 02:13:16 17° WSW 02:17:04 42° WNW 02:22:07 10° NNE
CZ-2D R/B 2.3 02:14:32 10° N 02:19:41 57° WNW 02:24:33 12° SW
SL-16 R/B 2.7 02:14:31 10° SSE 02:20:47 82° ENE 02:27:05 10° NNW
COSMOS 2428 2.9 02:15:33 10° NNW 02:21:18 79° ENE 02:27:00 10° SSE
ADEOS Rocket 4.2 02:15:26 10° N 02:22:16 40° WNW 02:28:49 12° WSW
Cosmos 841 Rocket 3.8 02:19:11 10° SSW 02:24:17 69° ESE 02:29:27 10° NNE
Sich 1 2.9 02:21:16 10° N 02:25:27 89° E 02:29:34 10° S
Okean 3 Rocket 3.6 02:21:09 10° N 02:25:37 86° ENE 02:30:05 10° S
Cosmos 1758 3.6 02:25:30 10° N 02:29:09 62° ENE 02:32:43 10° SSE
Cosmos 1898 Rocket 3.5 02:24:39 10° NNW 02:29:45 60° WSW 02:34:48 10° S
Cosmos 1937 Rocket 3.4 02:29:08 10° NNW 02:34:20 73° WSW 02:39:28 10° SSE
Cosmos 1805 Rocket 4.0 02:30:17 10° N 02:34:41 66° ENE 02:39:02 10° SSE
Cosmos 2360 Rocket 3.4 02:32:13 10° NW 02:36:18 21° W 02:40:23 10° SSW
Cosmos 2333 Rocket 3.9 02:35:04 10° WNW 02:37:11 12° W 02:38:59 11° WSW
Alouette 2 Rocket 4.3 02:34:27 10° NW 02:37:53 26° W 02:40:55 10° SSW
USA 305 2.6 02:39:40 10° NW 02:40:38 14° N 02:41:16 10° NNE
Meteor 1-18 Rocket 4.2 02:37:11 10° SSW 02:42:45 86° WNW 02:48:20 10° NNE
Meteor 2-10 Rocket 3.6 02:38:38 10° NNW 02:43:37 55° W 02:48:45 10° S
H-2A R/B 2.1 02:40:42 10° NNE 02:44:44 74° ESE 02:48:42 10° S
Cosmos 2082 Rocket 4.4 02:44:26 10° WNW 02:47:28 14° NNW 02:50:30 10° N
Resurs 1-4 Rocket 3.0 02:43:27 10° N 02:48:09 33° WNW 02:52:48 10° WSW
Cosmos 1553 Rocket 4.0 02:42:02 10° SSW 02:48:11 68° WNW 02:54:31 10° N
In-Cosmos 22 4.2 02:43:50 10° S 02:49:07 82° E 02:54:33 10° NNE
USA 276 2.8 02:50:08 11° SW 02:50:28 12° SSW 02:51:12 10° S
Cosmos 2322 Rocket 3.8 02:48:25 10° WNW 02:51:21 15° W 02:54:18 10° SW
BREEZE-M DEB (TANK) 3.9 02:50:51 10° W 02:54:09 56° SSW 03:04:56 10° ESE
Cosmos 1709 Rocket 4.2 02:49:48 10° N 02:55:56 78° E 03:02:03 10° SSE
CZ-2C R/B 3.1 02:51:14 10° NNE 02:56:04 57° E 03:00:42 10° S
Cosmos 1340 Rocket 3.6 02:52:54 10° N 02:56:35 53° ENE 03:00:17 10° SSE
